Location: Holkham
(52.9500°N, 0.8167°E)
Time: 01:20:58
(UTC+00:00)

Cosmos 2360 Rocket - Pass Details

Date: 19 May 2025
Orbit: 834 x 842 km, 71.0° (Epoch: 18 June)

Event Time Altitude Azimuth Distance (km) Brightness Sun altitude
Rises 21:23:19 0° 326° (NW) 3,395 7.7 -10.2°
Reaches altitude 10° 21:26:21 10° 342° (NNW) 2,458 6.0 -10.4°
Maximum altitude 21:30:40 22° 32° (NNE) 1,758 4.2 -10.8°
Drops below altitude 10° 21:34:58 10° 82° (E) 2,451 4.4 -11.2°
Enters shadow 21:37:49 - 97° (E) 3,328 4.9 -11.4°
